Location: ?er?an
(49.8491°N, 14.7064°E)
Time: 01:36:48
(UTC+00:00)

Daily predictions for brighter satellites

Satellite Brightness Start Highest point End
(mag) Time Altitude Azimuth Time Altitude Azimuth Time Altitude Azimuth
Cosmos 2333 Rocket 4.5 02:22:35 19° NE 02:22:35 19° NE 02:24:05 10° NE
USA 215 3.7 02:50:48 10° ENE 02:55:54 58° NE 02:55:54 58° NE
Cosmos 1943 Rocket 4.0 03:09:37 22° NNE 03:11:36 27° NE 03:16:21 10° E
Cosmos 540 Rocket 4.4 03:21:48 46° ENE 03:21:48 46° ENE 03:25:52 10° NNE
Cosmos 2369 Rocket 4.3 03:18:43 15° N 03:21:28 21° NE 03:25:42 10° E
Cosmos 2278 Rocket 4.2 03:36:40 17° S 03:36:40 17° S 03:37:52 10° S
COSMO-SKYMED 1 3.7 03:31:45 10° SE 03:35:20 41° E 03:35:20 41° E
SL-16 R/B 4.1 03:31:14 10° SSE 03:35:53 27° ESE 03:40:34 10° NE
Cosmos 2219 Rocket 3.3 03:41:52 31° N 03:41:52 31° N 03:45:06 10° NNE
Cosmos 2237 Rocket 2.2 03:43:06 71° SSE 03:43:36 77° ESE 03:49:19 10° NNE
ERS-2 3.7 03:47:46 10° SE 03:50:34 35° E 03:50:34 35° E
CBERS 1 LM4 rocket 4.5 03:46:22 10° NNE 03:51:45 83° NW 03:51:45 83° NW
BREEZE-M DEB (TANK) 3.9 03:55:50 48° W 03:57:39 58° SW 04:01:48 10° SE
Cosmos 1513 Rocket 4.3 03:57:03 47° SSW 03:58:57 73° W 04:05:08 10° N
Cosmos 1626 Rocket 4.3 04:00:29 45° SSE 04:00:29 45° SSE 04:03:34 10° S
Cosmos 2333 Rocket 3.4 04:04:35 28° NNW 04:04:35 28° NNW 04:08:12 10° NNE
FENGYUN 3A 3.6 03:59:44 10° N 04:04:53 64° WNW 04:04:53 64° WNW
Lacrosse 4 Rocket 2.0 04:04:26 50° SSE 04:05:08 58° ESE 04:09:27 10° NE
Cosmos 1763 Rocket 4.4 04:07:15 33° NNW 04:07:15 33° NNW 04:10:40 10° NNE
Cosmos 2297 3.7 04:08:14 32° NNW 04:11:02 82° ENE 04:16:47 10° SSE
Cosmos 1891 Rocket 4.4 04:10:02 50° WSW 04:11:12 59° WNW 04:17:12 10° N
USA 238 DEB 4.5 04:05:31 10° SSW 04:11:45 49° ESE 04:18:20 10° NE
USA 238 4.5 04:05:38 10° SSW 04:11:52 48° ESE 04:18:26 10° NE
deb Chang Zheng 4 4.2 04:09:26 10° NNE 04:13:37 55° ESE 04:17:45 10° S
Cosmos 2360 Rocket 4.0 04:15:25 16° NNW 04:15:25 16° NNW 04:17:52 10° N
SAR-Lupe-4 4.3 04:11:28 10° SSE 04:14:57 52° ENE 04:15:58 37° NNE
Cosmos 1464 Rocket 3.9 04:13:46 34° SW 04:16:21 59° WNW 04:22:29 10° N
Cosmos 841 Rocket 3.4 04:16:53 60° W 04:17:11 62° WNW 04:22:20 10° NNE
Cosmos 1980 3.6 04:17:06 53° W 04:18:04 61° WNW 04:23:42 10° NNE
SL-16 R/B 4.4 04:18:48 11° NNW 04:18:48 11° NNW 04:20:13 10° N
Meteor 1-31 Rocket 3.7 04:14:44 10° N 04:17:17 39° N 04:17:17 39° N
MOS 1 Rocket 3.2 04:14:31 10° SSE 04:19:21 84° ENE 04:23:13 14° NNW
Meteor 1-21 Rocket 4.3 04:17:52 40° NW 04:19:34 54° W 04:25:14 10° S
Cosmos 2322 Rocket 4.3 04:20:13 12° NNW 04:20:13 12° NNW 04:21:47 10° N
Meteor 2-13 Rocket 4.4 04:14:21 10° NNW 04:20:26 60° W 04:26:26 10° S
Cosmos 1346 Rocket 3.4 04:18:51 19° N 04:21:34 57° ENE 04:25:29 10° SSE
SKYMED 2 3.4 04:19:33 10° S 04:23:52 66° WSW 04:23:56 65° W
COSMOS 2428 3.7 04:25:09 29° NW 04:25:09 29° NW 04:29:36 10° NNE
Cosmos 1758 Rocket 3.9 04:20:22 10° N 04:24:51 66° ENE 04:29:17 10° SSE
FALCON 9 DEB 3.6 04:28:14 52° NNE 04:28:14 52° NNE 04:31:09 10° ENE
SAR-Lupe-1 4.1 04:27:42 10° SSE 04:31:17 79° ENE 04:32:40 36° N
ATLAS CENTAUR R/B 0.9 04:31:44 74° SW 04:32:03 89° NW 04:35:45 10° NE
METEOR-M 4.2 04:27:02 10° N 04:32:13 51° WNW 04:34:34 30° SW
Cosmos 1689 Rocket 2.4 04:33:07 10° SSE 04:35:31 57° SE 04:35:31 57° SE
Cosmos 2150 Rocket 4.0 04:33:50 27° NW 04:36:41 64° WSW 04:42:01 10° S
Cosmos 2084 Rocket 3.9 04:37:18 41° WSW 04:37:20 41° SW 04:41:34 10° SSE
Cosmos 1092 Rocket 3.8 04:31:25 10° NNW 04:37:34 74° W 04:43:44 10° S
ALOS 3.5 04:35:25 10° N 04:37:53 24° NNW 04:37:53 24° NNW
USA 215 3.6 04:33:48 10° ENE 04:40:03 50° N 04:43:16 28° WNW
Cosmos 1602 Rocket 3.7 04:40:25 35° NW 04:41:55 50° W 04:46:14 10° SSW
NOSS 3-3 (C) 4.5 04:37:28 23° NW 04:42:27 69° SW 04:50:43 10° SSE
ADEOS 3.7 04:37:33 10° N 04:42:36 50° WNW 04:47:36 10° SW
GEOS 3 Rocket 3.7 04:37:51 10° SE 04:43:15 90° SW 04:46:52 22° NW
BREEZE-M DEB (TANK) 2.1 04:44:16 59° ESE 04:44:16 59° ESE 04:46:26 10° E
YAOGAN 6 3.4 04:40:21 10° NNE 04:44:00 53° E 04:47:37 10° S
Cosmos 1908 4.0 04:45:31 33° NNW 04:45:31 33° NNW 04:48:04 10° N
Meteor 2-19 Rocket 4.5 04:39:32 10° N 04:45:42 84° E 04:51:48 10° S
USA 307 2.9 04:44:42 33° SW 04:46:33 76° SSE 04:50:47 10° ENE
CZ-2C R/B 4.4 04:43:19 10° NNW 04:44:43 15° NNW 04:44:43 15° NNW
Cosmos 1328 3.9 04:46:59 45° W 04:47:10 46° W 04:50:54 10° SSW
NOSS 0 Rocket 4.4 04:45:40 30° W 04:47:47 40° NW 04:53:35 10° NNE
Nadezhda 4 Rocket 4.3 04:42:15 10° NNW 04:47:52 40° W 04:53:29 10° SSW
BREEZE-M (TANK) 3.9 04:52:16 12° S 04:52:16 12° S 04:52:36 10° S
USA 305 2.8 04:50:49 30° WSW 04:52:50 84° SSE 04:57:06 10° ENE
Cosmos 2098 Rocket 3.4 04:47:37 10° N 04:53:30 83° W 04:58:05 10° S
Cosmos 1400 Rocket 3.2 04:53:20 24° SW 04:55:22 42° WNW 04:59:19 10° N
USA 308 2.9 04:53:18 28° WSW 04:55:32 84° SSE 04:59:49 10° ENE
Cosmos 1943 Rocket 2.1 04:51:10 15° NNW 04:55:55 73° WSW 05:01:34 10° SSE
Okean O Rocket 3.9 04:53:11 10° NE 04:56:54 27° E 05:00:35 10° SSE
SL-4 R/B 1.8 04:55:30 34° WSW 04:57:07 84° SSE 05:01:14 10° ENE
Cosmos 1825 Rocket 3.5 04:53:01 10° NNW 04:57:30 81° W 05:01:58 10° S
Cosmos 2034 Rocket 4.3 04:52:06 10° SW 04:58:07 43° WNW 05:04:09 10° N
SJ-12 4.4 04:57:06 10° N 05:00:56 37° WNW 05:04:12 13° SW
CZ-2C R/B 3.0 04:56:36 10° SSE 05:01:50 69° ENE 05:07:14 10° N
Cosmos 540 Rocket 4.3 05:01:39 26° WNW 05:02:45 28° NW 05:07:12 10° N
H-2A R/B 4.0 04:59:55 10° NNE 05:04:14 43° E 05:08:32 10° S
USA 306 2.8 05:02:37 24° WSW 05:05:06 86° NNW 05:09:22 10° ENE
Envisat 3.0 05:00:05 10° NNE 05:05:13 87° ESE 05:10:18 10° SSW
Cosmos 1125 Rocket 3.7 05:01:52 15° NW 05:06:07 49° WSW 05:11:13 10° S
Cosmos 2369 Rocket 2.2 05:00:43 10° NNW 05:06:22 85° ENE 05:11:58 10° SSE
NOSS 3-2 (A) 3.4 05:00:54 10° SW 05:06:40 78° NW 05:13:25 10° NE
Cosmos 1634 Rocket 3.9 05:02:04 10° SSW 05:08:13 71° WNW 05:14:26 10° N
CZ-4B R/B 3.0 05:06:38 10° N 05:10:05 40° WNW 05:13:37 10° SW
COSMO-SKYMED 1 3.7 05:08:45 10° SW 05:12:13 23° W 05:12:33 23° W
Cosmos 2228 2.9 05:14:07 10° SSW 05:18:20 66° WNW 05:22:34 10° N
SL-16 R/B 2.2 05:14:03 10° SW 05:19:38 59° NW 05:25:16 10° NNE
NOSS 3-2 (C) 3.5 05:14:32 10° SW 05:20:16 85° SE 05:26:57 10° NE
DMSP B5D2-2 4.4 05:15:14 10° SSE 05:20:27 70° ENE 05:25:44 10° N
CZ-4B R/B 4.2 05:15:26 10° NNE 05:20:57 51° E 05:26:22 10° S
Cosmos 1953 Rocket 3.5 05:18:30 10° NNW 05:22:50 67° W 05:27:08 10° S
ERBS 3.6 05:20:05 10° SSW 05:23:11 40° SE 05:26:17 10° ENE
Cosmos 2026 Rocket 4.3 05:17:40 10° NNW 05:23:39 45° W 05:29:39 10° SSW
Cosmos 972 Rocket 4.4 05:18:00 10° SW 05:23:56 50° WNW 05:29:18 10° NNE
Cosmos 1943 4.5 05:18:54 10° S 05:24:18 45° ESE 05:29:43 10° NE
ERS-2 3.5 05:22:10 10° SW 05:24:50 19° W 05:25:10 19° W
Cosmos 2219 Rocket 3.9 05:23:36 13° NW 05:25:10 14° NNW 05:28:03 10° N
H-2A R/B 3.3 05:23:40 10° N 05:27:03 34° WNW 05:30:27 10° SW
CENTAUR R/B 2.6 05:21:31 10° SW 05:27:35 85° NW 05:34:53 10° NE
Cosmos 2237 Rocket 3.2 05:24:58 16° W 05:28:17 26° NW 05:33:02 10° NNE
Cosmos 1656 Rocket 3.7 05:27:16 10° NNW 05:32:45 81° ENE 05:38:10 10° SSE
CZ-4 R/B 4.5 05:30:35 10° NE 05:32:56 15° E 05:35:16 10° SE
FALCON 9 DEB 3.4 05:30:24 10° SW 05:33:31 59° SSE 05:36:37 10° ENE
Cosmos 1825 3.1 05:30:49 10° N 05:34:32 49° ENE 05:38:12 10° SSE
Cosmos 1606 Rocket 3.6 05:30:38 10° SSW 05:34:49 51° WNW 05:39:05 10° N
NOAA 6 4.0 05:30:57 10° NNE 05:36:10 74° WNW 05:41:20 10° SSW
Cosmos 1455 3.1 05:34:47 10° S 05:38:25 52° E 05:42:06 10° NNE
Cosmos 2058 3.2 05:34:37 10° N 05:38:44 68° ENE 05:42:49 10° SSE
AQUARIUS 4.2 05:36:31 10° NNE 05:41:03 86° ESE 05:45:33 10° SSW
FALCON 9 DEB 3.0 05:38:54 10° WSW 05:42:00 73° SSE 05:45:06 10° ENE
Lacrosse 4 Rocket 2.6 05:40:48 11° W 05:44:10 25° NW 05:47:51 10° NNE
Cosmos 1300 3.6 05:43:36 10° SW 05:46:52 27° WNW 05:50:10 10° NNW
Cosmos 2333 Rocket 4.1 05:47:36 10° NW 05:49:22 11° NNW 05:51:09 10° N
Cosmos 1315 Rocket 3.6 05:48:01 10° SW 05:51:29 29° WNW 05:54:58 10° N
Cosmos 1655 Rocket 4.0 05:46:23 10° NNW 05:52:36 66° W 05:58:49 10° S
Meteor 2-21 4.5 05:46:40 10° NNW 05:52:53 78° W 05:59:05 10° S
[s.n.47389] 3.8 05:50:33 10° SW 05:53:00 39° SSE 05:55:27 10° ENE
[s.n.47399] 3.8 05:50:35 10° SW 05:53:02 39° SSE 05:55:29 10° ENE
[s.n.47393] 3.8 05:50:37 10° SW 05:53:03 39° SSE 05:55:31 10° ENE
[s.n.47353] 3.8 05:50:41 10° SW 05:53:08 39° SSE 05:55:36 10° ENE
[s.n.47355] 3.8 05:50:44 10° SW 05:53:12 39° SSE 05:55:40 10° ENE
[s.n.47365] 3.8 05:50:47 10° SW 05:53:14 39° SSE 05:55:43 10° ENE
[s.n.47383] 3.8 05:50:52 10° SW 05:53:19 39° SSE 05:55:47 10° ENE
[s.n.47400] 3.8 05:50:51 10° SW 05:53:21 40° SSE 05:55:52 10° ENE
[s.n.47378] 3.8 05:50:58 10° SW 05:53:25 39° SSE 05:55:54 10° ENE
[s.n.47395] 3.8 05:51:01 10° SW 05:53:28 39° SSE 05:55:56 10° ENE
[s.n.47379] 3.8 05:51:07 10° SW 05:53:34 39° SSE 05:56:03 10° ENE
[s.n.47370] 3.8 05:51:07 10° SW 05:53:34 39° SSE 05:56:03 10° ENE
[s.n.47351] 3.8 05:51:08 10° SW 05:53:38 40° SSE 05:56:09 10° ENE
[s.n.47394] 3.8 05:51:13 10° SW 05:53:41 39° SSE 05:56:10 10° ENE
[s.n.47354] 3.8 05:51:17 10° SW 05:53:45 39° SSE 05:56:13 10° ENE
[s.n.47360] 3.8 05:51:19 10° SW 05:53:47 39° SSE 05:56:15 10° ENE
[s.n.47369] 3.8 05:51:24 10° SW 05:53:52 40° SSE 05:56:20 10° ENE
[s.n.47406] 3.8 05:51:26 10° SW 05:53:54 40° SSE 05:56:23 10° ENE
[s.n.47384] 3.8 05:51:29 10° SW 05:53:57 40° SSE 05:56:26 10° ENE
[s.n.47356] 3.8 05:51:32 10° SW 05:54:00 40° SSE 05:56:29 10° ENE
[s.n.47407] 3.8 05:51:36 10° SW 05:54:04 40° SSE 05:56:32 10° ENE
[s.n.47385] 3.8 05:51:36 10° SW 05:54:06 40° SSE 05:56:37 10° ENE
[s.n.47358] 3.8 05:51:43 10° SW 05:54:11 40° SSE 05:56:39 10° ENE
[s.n.47398] 3.8 05:51:45 10° SW 05:54:13 40° SSE 05:56:42 10° ENE
[s.n.47361] 3.8 05:51:49 10° SW 05:54:17 40° SSE 05:56:46 10° ENE
[s.n.47392] 3.7 05:51:51 10° SW 05:54:19 40° SSE 05:56:47 10° ENE
[s.n.47382] 3.8 05:51:55 10° SW 05:54:23 40° SSE 05:56:51 10° ENE
[s.n.47359] 3.8 05:51:56 10° SW 05:54:25 40° SSE 05:56:56 10° ENE
[s.n.47401] 3.7 05:52:03 10° SW 05:54:30 40° SSE 05:56:59 10° ENE
[s.n.47380] 3.8 05:52:01 10° SW 05:54:31 41° SSE 05:57:03 10° ENE
[s.n.47386] 3.7 05:52:09 10° SW 05:54:37 40° SSE 05:57:06 10° ENE
PAYLOAD B 4.2 05:49:03 10° NNE 05:54:37 69° WNW 06:00:11 10° SSW
[s.n.47408] 3.7 05:52:09 10° SW 05:54:39 41° SSE 05:57:11 10° ENE
[s.n.47396] 3.7 05:52:15 10° SW 05:54:43 40° SSE 05:57:12 10° ENE
[s.n.47391] 3.7 05:52:17 10° SW 05:54:45 40° SSE 05:57:14 10° ENE
[s.n.47402] 3.7 05:52:21 10° SW 05:54:49 40° SSE 05:57:17 10° ENE
[s.n.47404] 3.7 05:52:24 10° SW 05:54:52 40° SSE 05:57:21 10° ENE
[s.n.47403] 3.7 05:52:28 10° SW 05:54:55 40° SSE 05:57:24 10° ENE
[s.n.47381] 3.7 05:52:30 10° SW 05:54:58 40° SSE 05:57:27 10° ENE
NOAA 11 4.2 05:49:28 10° NNE 05:54:59 89° WNW 06:00:26 10° SSW
[s.n.47372] 3.7 05:52:34 10° SW 05:55:03 41° SSE 05:57:31 10° ENE
[s.n.47405] 3.7 05:52:37 10° SW 05:55:05 41° SSE 05:57:34 10° ENE
[s.n.47368] 3.7 05:52:42 10° SW 05:55:10 41° SSE 05:57:39 10° ENE
[s.n.47350] 3.7 05:52:44 10° SW 05:55:12 41° SSE 05:57:41 10° ENE
[s.n.47349] 3.7 05:52:43 10° SW 05:55:14 41° SSE 05:57:46 10° ENE
[s.n.47367] 3.7 05:52:48 10° SW 05:55:17 41° SSE 05:57:48 10° ENE
[s.n.47373] 3.7 05:52:50 10° SW 05:55:21 41° SSE 05:57:53 10° ENE
[s.n.47377] 3.7 05:52:53 10° SW 05:55:24 41° SSE 05:57:56 10° ENE
[s.n.47371] 3.7 05:52:56 10° SW 05:55:27 41° SSE 05:57:59 10° ENE
[s.n.47362] 3.7 05:52:59 10° SW 05:55:30 41° SSE 05:58:02 10° ENE
[s.n.47363] 3.7 05:53:02 10° SW 05:55:33 42° SSE 05:58:05 10° ENE
[s.n.47374] 3.7 05:53:08 10° SW 05:55:37 41° SSE 05:58:08 10° ENE
[s.n.47357] 3.7 05:53:12 10° SW 05:55:41 41° SSE 05:58:11 10° ENE
[s.n.47390] 3.7 05:53:16 10° SW 05:55:44 41° SSE 05:58:14 10° ENE
[s.n.47387] 3.7 05:53:18 10° SW 05:55:46 41° SSE 05:58:17 10° ENE
[s.n.47375] 3.7 05:53:19 10° SW 05:55:47 41° SSE 05:58:17 10° ENE
[s.n.47376] 3.7 05:53:19 10° SW 05:55:50 42° SSE 05:58:22 10° ENE
[s.n.47366] 3.7 05:53:28 10° SW 05:55:57 41° SSE 05:58:28 10° ENE
[s.n.47352] 3.7 05:53:30 10° SW 05:56:00 42° SSE 05:58:31 10° ENE
[s.n.47364] 3.7 05:53:34 10° SW 05:56:04 42° SSE 05:58:36 10° ENE
[s.n.47388] 3.7 05:53:37 10° SW 05:56:08 42° SSE 05:58:39 10° ENE
[s.n.47397] 3.7 05:53:43 10° SW 05:56:12 42° SSE 05:58:42 10° ENE
ATLAS 3B R/B 3.8 05:54:24 10° SSW 06:00:38 48° ESE 06:07:02 10° NE
Meteor 2-14 Rocket 4.5 05:56:15 10° NNW 06:02:22 69° W 06:08:28 10° S
USA 238 DEB 3.9 05:56:14 10° WSW 06:02:43 52° NW 06:09:34 10° NE
USA 238 3.9 05:56:20 10° WSW 06:02:50 53° NW 06:09:41 10° NE
NOAA 12 4.1 05:57:56 10° N 06:03:10 62° WNW 06:08:23 10° SSW
Cosmos 783 Rocket 4.5 05:59:26 10° SSW 06:04:37 71° WNW 06:09:51 10° NNE
FALCON 9 DEB 3.5 06:01:41 10° WNW 06:05:01 50° N 06:08:22 10° E
Cosmos 2151 4.1 06:05:06 10° N 06:09:14 46° ENE 06:13:18 10° SSE
Cosmos 1441 Rocket 3.6 06:05:34 10° NNW 06:09:21 44° W 06:13:04 10° SSW
